Retour au catalogue

STARLINK-2481

ActifCommunicationsVLEO
NORAD 48138·PAYLOAD·🇺🇸 United States

Lancé Apr 7, 2021 depuis Cape Canaveral Space Force Station

Loading…

Prochains Passages (prochaines 24 heures)

TLE

FraisSource: CelesTrak SupGP

Époque: Sep 15, 2026, 02:42 UTC

1 48138C 21027AY  26258.11298611  .00071936  00000+0  23116-2 0  2586
2 48138  53.1607   6.2272 0001096  75.1932 299.8099 15.31690115    19

Suivez STARLINK-2481 en temps réel avec AllMySat

Download on the App Store